Montevideo, MN

9:43 PM CDT on May 22, 2017 (GMT -0500)
Montevideo-Chippewa County

Weather History for KMVE - March, 2013

Change the Weather History Date:

Saturday, March 30, 2013

  Actual Average Record
Temperature  
Mean Temperature 38 °F -  
Max Temperature 44 °F 48 °F 80 °F (1968)
Min Temperature 32 °F 27 °F -11 °F (1969)
Degree Days  
Heating Degree Days 27    
Moisture  
Dew Point 36 °F    
Average Humidity 93    
Maximum Humidity 100    
Minimum Humidity 81    
Precipitation  
Precipitation 0.00 in - - ()
Sea Level Pressure  
Sea Level Pressure 29.94 in    
Wind  
Wind Speed 8 mph (NNW)    
Max Wind Speed 15 mph    
Max Gust Speed 21 mph    
Visibility 5 miles    
Events Fog , Rain , Thunderstorm    
Averages and records for this station are not official NWS values.
T = Trace of Precipitation, MM = Missing Value Source: NWS Daily Summary

Daily Weather History Graph

Daily Weather History Graph

Search for Another Location

Airport or City:

Trip Planner

Search our weather history database for the weather conditions in past years. The results will help you decide how hot, cold, wet, or windy it might be!

Date:

Astronomy

Mar. 30, 2013 Rise Set
Actual Time 7:06 AM CDT 7:48 PM CDT
Civil Twilight 6:37 AM CDT 8:18 PM CDT
Nautical Twilight 6:02 AM CDT 8:53 PM CDT
Astronomical Twilight 5:25 AM CDT 9:29 PM CDT
Moon No Moon Rise 8:52 AM CDT (3/30)
Length of Visible Light 13h 40m
Length of Day
12h 41m
Waning Gibbous, 86% of the Moon is Illuminated
Mar 30
Waning Gibbous
Apr 2
Last Quarter
Apr 10
New
Apr 18
First Quarter
Apr 25
Full

Hourly Weather History & Observations

Time (CDT) Temp. Windchill Dew Point Humidity Pressure Visibility Wind Dir Wind Speed Gust Speed Precip Events Conditions
12:14 AM 42.8 °F 37.5 °F 39.2 °F 87% 29.93 in 10.0 mi South 9.2 mph - N/A Thunderstorm Clear
12:34 AM 42.8 °F 36.6 °F 37.4 °F 81% 29.92 in 10.0 mi SSW 11.5 mph - N/A Thunderstorm Thunderstorm
12:54 AM 42.8 °F 36.6 °F 37.4 °F 81% 29.90 in 10.0 mi SSW 11.5 mph - N/A Thunderstorm Thunderstorm
1:14 AM 42.8 °F 38.6 °F 37.4 °F 81% 29.90 in 10.0 mi SSW 6.9 mph - N/A Thunderstorm Clear
1:34 AM 42.8 °F 38.0 °F 37.4 °F 81% 29.89 in 10.0 mi SSW 8.1 mph - N/A   Clear
1:54 AM 41.0 °F 36.4 °F 37.4 °F 87% 29.90 in 10.0 mi SSW 6.9 mph - N/A   Scattered Clouds
2:14 AM 41.0 °F - 37.4 °F 87% 29.91 in 10.0 mi Calm Calm - N/A Thunderstorm Mostly Cloudy
2:34 AM 39.2 °F - 35.6 °F 87% 29.92 in 10.0 mi Calm Calm - N/A   Overcast
2:54 AM 42.8 °F 40.1 °F 37.4 °F 81% 29.92 in 10.0 mi West 4.6 mph - N/A   Light Drizzle
3:14 AM 42.8 °F - 39.2 °F 87% 29.90 in 10.0 mi Calm Calm - N/A Rain Light Rain
3:34 AM 44.6 °F 40.7 °F 41.0 °F 87% 29.90 in 10.0 mi NNW 6.9 mph - N/A   Overcast
3:54 AM 42.8 °F - 41.0 °F 93% 29.89 in 10.0 mi Calm Calm - N/A   Overcast
4:14 AM 41.0 °F - 39.2 °F 93% 29.90 in 10.0 mi Calm Calm - N/A   Scattered Clouds
4:34 AM 39.2 °F - 39.2 °F 100% 29.90 in 7.0 mi Calm Calm - N/A   Scattered Clouds
4:54 AM 39.2 °F - 39.2 °F 100% 29.90 in 7.0 mi Calm Calm - N/A   Mostly Cloudy
5:14 AM 39.2 °F 35.9 °F 39.2 °F 100% 29.90 in 10.0 mi WNW 4.6 mph - N/A   Overcast
5:34 AM 42.8 °F 40.1 °F 39.2 °F 87% 29.90 in 10.0 mi West 4.6 mph - N/A Rain Light Rain
5:54 AM 42.8 °F 38.6 °F 39.2 °F 87% 29.89 in 10.0 mi West 6.9 mph - N/A   Overcast
6:14 AM 42.8 °F 38.6 °F 39.2 °F 87% 29.90 in 10.0 mi WNW 6.9 mph - N/A   Overcast
6:34 AM 41.0 °F 37.1 °F 39.2 °F 93% 29.90 in 10.0 mi WNW 5.8 mph - N/A   Overcast
6:54 AM 39.2 °F 34.2 °F 37.4 °F 93% 29.91 in 10.0 mi WNW 6.9 mph - N/A   Scattered Clouds
7:13 AM 37.4 °F 30.3 °F 37.4 °F 100% 29.92 in 7.0 mi NW 10.4 mph - N/A   Clear
7:34 AM 35.6 °F 28.0 °F 35.6 °F 100% 29.93 in 3.0 mi NNW 10.4 mph 20.7 mph N/A   Scattered Clouds
7:54 AM 33.8 °F 24.8 °F 33.8 °F 100% 29.94 in 0.2 mi North 12.7 mph - N/A Fog Fog
8:13 AM 33.8 °F 25.8 °F 33.8 °F 100% 29.94 in 0.2 mi NNW 10.4 mph - N/A Fog Fog
8:34 AM 33.8 °F 25.3 °F 33.8 °F 100% 29.94 in 0.2 mi NNW 11.5 mph - N/A Fog Fog
8:54 AM 33.8 °F 25.8 °F 33.8 °F 100% 29.94 in 0.2 mi NNW 10.4 mph - N/A Fog Fog
9:14 AM 33.8 °F 25.3 °F 33.8 °F 100% 29.95 in 0.2 mi NNW 11.5 mph - N/A Fog Fog
9:34 AM 33.8 °F 27.7 °F 33.8 °F 100% 29.95 in 0.2 mi North 6.9 mph - N/A Fog Fog
9:54 AM 33.8 °F 27.0 °F 33.8 °F 100% 29.95 in 0.2 mi NNW 8.1 mph - N/A Fog Fog
10:14 AM 35.6 °F 28.6 °F 35.6 °F 100% 29.95 in 0.2 mi North 9.2 mph - N/A Fog Fog
10:34 AM 35.6 °F 27.5 °F 35.6 °F 100% 29.95 in 0.2 mi NNW 11.5 mph - N/A Fog Fog
10:53 AM 35.6 °F 28.0 °F 35.6 °F 100% 29.96 in 0.2 mi North 10.4 mph - N/A Fog Fog
11:14 AM 35.6 °F 27.1 °F 35.6 °F 100% 29.95 in 0.2 mi North 12.7 mph 17.3 mph N/A Fog Fog
11:34 AM 35.6 °F 26.6 °F 35.6 °F 100% 29.96 in 0.8 mi North 13.8 mph - N/A   Overcast
11:54 AM 35.6 °F 28.6 °F 35.6 °F 100% 29.96 in 2.0 mi North 9.2 mph - N/A   Overcast
12:14 PM 37.4 °F 29.8 °F 37.4 °F 100% 29.96 in 4.0 mi North 11.5 mph - N/A   Mostly Cloudy
12:34 PM 39.2 °F 33.0 °F 37.4 °F 93% 29.96 in 4.0 mi North 9.2 mph - N/A   Scattered Clouds
12:54 PM 39.2 °F 34.2 °F 37.4 °F 93% 29.95 in 5.0 mi NNW 6.9 mph - N/A   Clear
1:14 PM 42.8 °F 38.6 °F 37.4 °F 81% 29.95 in 5.0 mi NW 6.9 mph - N/A   Clear
1:34 PM 42.8 °F 37.5 °F 37.4 °F 81% 29.95 in 7.0 mi NNW 9.2 mph - N/A   Clear
1:54 PM 42.8 °F 36.6 °F 37.4 °F 81% 29.95 in 7.0 mi North 11.5 mph - N/A   Clear
2:14 PM 41.0 °F 33.5 °F 37.4 °F 87% 29.95 in 7.0 mi North 13.8 mph - N/A   Clear
2:34 PM 42.8 °F 36.6 °F 37.4 °F 81% 29.95 in 7.0 mi North 11.5 mph - N/A   Clear
2:54 PM 42.8 °F 36.2 °F 37.4 °F 81% 29.95 in 7.0 mi North 12.7 mph - N/A   Clear
3:14 PM 42.8 °F 36.6 °F 37.4 °F 81% 29.95 in 7.0 mi North 11.5 mph - N/A   Clear
3:34 PM 42.8 °F 36.2 °F 37.4 °F 81% 29.95 in 7.0 mi North 12.7 mph - N/A   Clear
3:54 PM 42.8 °F 36.6 °F 37.4 °F 81% 29.94 in 7.0 mi North 11.5 mph - N/A   Clear
4:13 PM 41.0 °F 33.5 °F 37.4 °F 87% 29.94 in 7.0 mi North 13.8 mph - N/A   Clear
4:34 PM 41.0 °F 34.3 °F 35.6 °F 81% 29.95 in 7.0 mi North 11.5 mph - N/A   Clear
4:54 PM 39.2 °F 31.6 °F 35.6 °F 87% 29.95 in 7.0 mi North 12.7 mph 19.6 mph N/A   Clear
5:14 PM 39.2 °F 32.0 °F 35.6 °F 87% 29.96 in 7.0 mi North 11.5 mph - N/A   Clear
5:34 PM 39.2 °F 32.5 °F 35.6 °F 87% 29.95 in 5.0 mi North 10.4 mph - N/A   Clear
5:54 PM 39.2 °F 32.0 °F 35.6 °F 87% 29.95 in 5.0 mi North 11.5 mph - N/A   Clear
6:14 PM 37.4 °F 30.3 °F 35.6 °F 93% 29.95 in 5.0 mi North 10.4 mph - N/A   Clear
6:34 PM 37.4 °F 29.8 °F 35.6 °F 93% 29.95 in 5.0 mi North 11.5 mph - N/A   Clear
6:53 PM 37.4 °F 30.8 °F 35.6 °F 93% 29.94 in 4.0 mi NNW 9.2 mph - N/A   Clear
7:14 PM 35.6 °F 28.6 °F 33.8 °F 93% 29.95 in 2.5 mi North 9.2 mph - N/A   Clear
7:34 PM 33.8 °F 27.0 °F 33.8 °F 100% 29.95 in 2.5 mi North 8.1 mph - N/A   Mostly Cloudy
7:53 PM 33.8 °F 27.7 °F 33.8 °F 100% 29.95 in 2.5 mi North 6.9 mph - N/A   Scattered Clouds
8:14 PM 33.8 °F 29.6 °F 33.8 °F 100% 29.95 in 2.5 mi NNW 4.6 mph - N/A   Clear
8:34 PM 33.8 °F 29.6 °F 33.8 °F 100% 29.95 in 3.0 mi NNW 4.6 mph - N/A   Clear
8:54 PM 33.8 °F 28.6 °F 33.8 °F 100% 29.95 in 3.0 mi NNW 5.8 mph - N/A   Clear
9:14 PM 33.8 °F 28.6 °F 33.8 °F 100% 29.95 in 3.0 mi NNW 5.8 mph - N/A   Clear
9:34 PM 33.8 °F 28.6 °F 33.8 °F 100% 29.95 in 3.0 mi NNW 5.8 mph - N/A   Clear
9:54 PM 33.8 °F 27.7 °F 33.8 °F 100% 29.95 in 3.0 mi NNW 6.9 mph - N/A   Clear
10:14 PM 33.8 °F 28.6 °F 33.8 °F 100% 29.95 in 3.0 mi NNW 5.8 mph - N/A   Mostly Cloudy
10:34 PM 33.8 °F 28.6 °F 33.8 °F 100% 29.95 in 3.0 mi NNW 5.8 mph - N/A   Overcast
10:54 PM 33.8 °F 26.4 °F 33.8 °F 100% 29.95 in 3.0 mi North 9.2 mph - N/A   Overcast
11:14 PM 33.8 °F 25.3 °F 33.8 °F 100% 29.96 in 2.5 mi North 11.5 mph - N/A   Overcast
11:34 PM 32.0 °F 21.6 °F 32.0 °F 100% 29.95 in 0.8 mi NNW 15.0 mph - N/A   Overcast
11:54 PM 32.0 °F 23.0 °F 32.0 °F 100% 29.95 in 0.8 mi North 11.5 mph 19.6 mph N/A   Overcast